Flag for U.S.A. Weather past 2 weeks in Manassas, Virginia, U.S.A.

Now
66 °F

Passing clouds.


Feels Like: 66 °F
Forecast: 67 / 87 °F
Wind: No wind

Location: Manassas Municipal

Current Time: May 30, 2015 at 5:04:46 AM

Latest Report: May 30, 2015 at 4:35 AM


Visibility: 10 mi

Pressure: 30.18 "Hg

Humidity: 94%

Dew point: 64 °F

Location of ManassasLocation

Historic Weather in Manassas — Graph

°F

Manassas temperature yesterday

Maximum temperature yesterday: 84 °F (at 3:50 PM)
Minimum temperature yesterday: 66 °F (at 2:15 AM)
Average temperature yesterday: 71 °F

Past Weeks' High & Low Weather Summary

 TemperatureHumidityPressure
High90 °F (May 19, 4:45 PM)100% (May 15, 6:15 AM)30.48 "Hg (May 15, 6:15 AM)
Low48 °F (May 15, 6:15 AM)26% (May 23, 11:45 AM)29.84 "Hg (May 19, 5:45 PM)
Average68 °F77%30.15 "Hg
* Reported May 15 3:15 AM — May 30 3:55 AM, Manassas, Weather by CustomWeather, © 2015

Note: Actual official high and low records may vary slightly from our data, if they occured in-between our weather recording intervals... More about our weather records

Advertising

Manassas weather history for previous 24 hours

 ConditionsComfort  
Time TempWeatherWind HumidityBarometerVisibility
3:55 AM
Sat, May 30
66 °FClear.No wind100%30.18 "Hg10 mi
3:35 AM66 °FClear.3 mph100%30.18 "Hg10 mi
3:15 AM68 °FClear.No wind94%30.18 "Hg10 mi
2:55 AM68 °FPassing clouds.No wind94%30.19 "Hg10 mi
2:35 AM70 °FPassing clouds.No wind88%30.19 "Hg10 mi
2:15 AM70 °FPartly cloudy.7 mph94%30.19 "Hg10 mi
1:55 AM70 °FMostly cloudy.3 mph94%30.19 "Hg10 mi
1:35 AM70 °FPassing clouds.3 mph94%30.18 "Hg10 mi
1:15 AM70 °FPassing clouds.3 mph94%30.18 "Hg10 mi
12:55 AM70 °FPassing clouds.No wind94%30.18 "Hg10 mi
12:35 AM68 °FPassing clouds.No wind100%30.19 "Hg10 mi
11:55 PM
Fri, May 29
68 °FClear.No wind100%30.19 "Hg10 mi
11:35 PM68 °FPassing clouds.No wind100%30.19 "Hg10 mi
10:55 PM70 °FPartly cloudy.No wind94%30.20 "Hg10 mi
10:35 PM70 °FMostly cloudy.No wind94%30.21 "Hg10 mi
9:55 PM70 °FClear.No wind88%30.20 "Hg10 mi
8:55 PM72 °FSunny.No wind83%30.19 "Hg10 mi
7:50 PM73 °FSunny.7 mph78%30.18 "Hg10 mi
6:55 PM81 °FSunny.6 mph74%30.18 "Hg10 mi
5:50 PM82 °FPartly sunny.6 mph70%30.18 "Hg10 mi
4:55 PM79 °FPartly sunny.3 mph74%30.18 "Hg10 mi
3:50 PM84 °FScattered clouds.6 mph62%30.21 "Hg10 mi
2:45 PM82 °FScattered clouds.No wind70%30.23 "Hg10 mi
1:45 PM81 °FBroken clouds.3 mph74%30.25 "Hg10 mi
12:45 PM79 °FOvercast.5 mph79%30.26 "Hg10 mi
11:50 AM75 °FOvercast.6 mph83%30.27 "Hg10 mi
10:45 AM73 °FOvercast.6 mph89%30.27 "Hg10 mi
9:50 AM73 °FOvercast.6 mph89%30.27 "Hg10 mi
8:50 AM73 °FOvercast.3 mph94%30.27 "Hg10 mi
7:55 AM72 °FOvercast.7 mph94%30.26 "Hg10 mi
6:55 AM72 °FOvercast.No wind94%30.24 "Hg10 mi
6:30 AM70 °FOvercast.No wind100%30.23 "Hg10 mi
6:15 AM70 °FPassing clouds.5 mph100%30.22 "Hg10 mi
5:55 AM66 °FClear.3 mph100%30.21 "Hg10 mi
5:35 AM68 °FPassing clouds.No wind100%30.21 "Hg10 mi
5:15 AM68 °FPassing clouds.3 mph100%30.21 "Hg10 mi
Weather by CustomWeather, © 2015

See weather overviewHow to use our weather pages